TimeMDT,TemperatureF,Dew PointF,Humidity,Sea Level PressureIn,VisibilityMPH,Wind Direction,Wind SpeedMPH,Gust SpeedMPH,PrecipitationIn,Events,Conditions,WindDirDegrees,DateUTC
12:53 AM,34.0,19.9,56,30.09,-9999.0,SE,15.0,-,N/A,,Scattered Clouds,130,2013-05-05 06:53:00
1:53 AM,35.1,19.0,52,30.05,-9999.0,SE,19.6,-,N/A,,Overcast,130,2013-05-05 07:53:00
2:53 AM,34.0,18.0,52,30.06,-9999.0,SE,17.3,24.2,N/A,,Overcast,130,2013-05-05 08:53:00
3:53 AM,32.0,16.0,52,30.06,-9999.0,SE,16.1,-,N/A,,Clear,130,2013-05-05 09:53:00
4:53 AM,30.9,14.0,50,30.06,-9999.0,SE,17.3,-,N/A,,Clear,140,2013-05-05 10:53:00
5:53 AM,30.9,15.1,52,30.08,-9999.0,SE,13.8,-,N/A,,Clear,140,2013-05-05 11:53:00
6:53 AM,34.0,15.1,46,30.08,-9999.0,SSE,17.3,-,N/A,,Partly Cloudy,150,2013-05-05 12:53:00
7:53 AM,36.0,15.1,43,30.09,-9999.0,SSE,21.9,-,N/A,,Clear,150,2013-05-05 13:53:00
8:53 AM,39.9,17.1,40,30.08,-9999.0,SSE,18.4,-,N/A,,Clear,150,2013-05-05 14:53:00
9:53 AM,44.1,18.0,35,30.03,-9999.0,SSE,32.2,36.8,N/A,,Clear,160,2013-05-05 15:53:00
10:53 AM,43.0,18.0,37,30.04,-9999.0,SSE,32.2,38.0,N/A,,Scattered Clouds,150,2013-05-05 16:53:00
12:53 PM,48.9,24.1,38,30.01,-9999.0,SSE,26.5,34.5,N/A,,Scattered Clouds,150,2013-05-05 18:53:00
1:53 PM,48.9,24.1,38,29.98,-9999.0,SSE,26.5,31.1,N/A,,Mostly Cloudy,150,2013-05-05 19:53:00
2:53 PM,52.0,25.0,35,29.97,10.0,SE,24.2,31.1,N/A,,Clear,140,2013-05-05 20:53:00
3:53 PM,48.9,26.1,41,29.99,10.0,SSE,24.2,-,N/A,,Clear,160,2013-05-05 21:53:00
4:53 PM,46.0,27.0,47,30.04,10.0,SSE,19.6,-,N/A,,Overcast,160,2013-05-05 22:53:00
5:53 PM,44.1,30.9,60,30.05,10.0,SE,10.4,-,0.00,,Overcast,140,2013-05-05 23:53:00
6:53 PM,45.0,30.0,56,30.01,10.0,SSE,11.5,-,N/A,,Overcast,150,2013-05-06 00:53:00
7:53 PM,43.0,28.9,58,30.02,10.0,SSE,15.0,-,N/A,,Overcast,160,2013-05-06 01:53:00
8:53 PM,41.0,26.1,55,30.03,-9999.0,SSE,16.1,-,N/A,,Clear,160,2013-05-06 02:53:00
9:53 PM,39.0,27.0,62,30.01,10.0,SSE,15.0,-,N/A,,Clear,150,2013-05-06 03:53:00
10:53 PM,37.9,25.0,60,30.01,-9999.0,SSE,10.4,-,N/A,,Clear,150,2013-05-06 04:53:00
11:53 PM,37.0,25.0,62,30.00,10.0,SE,15.0,-,N/A,,Clear,140,2013-05-06 05:53:00